Location: *
(43.4667°N, 11.6833°E)
Time: 06:36:01
(UTC+00:00)

Gbstr 26 Del rocket - Pass Details

Date: 19 July 2019
Orbit: 493 x 1264 km, 51.8° (Epoch: 22 August)

Event Time Altitude Azimuth Distance (km) Brightness Sun altitude
Rises 19:50:30 0° 255° (WSW) 2,849 7.0 -9.8°
Reaches altitude 10° 19:52:59 10° 262° (W) 1,857 6.1 -10.2°
Maximum altitude 19:56:56 44° 335° (NNW) 723 4.0 -10.7°
Drops below altitude 10° 20:00:33 10° 50° (NE) 1,699 5.3 -11.2°
Sets 20:02:44 0° 57° (ENE) 2,575 6.1 -11.5°
